星链-30702 (STARLINK-30702 )

导读

STARLINK-30702是美国SpaceX公司星链(Starlink)星座的成员卫星,于2023年9月25日发射升空,运行在近地轨道。星链星座旨在构建全球卫星互联网,为全球偏僻地区、海洋、航空等场景提供宽带互联网服务。该卫星与其他数千颗星链卫星组网,支撑SpaceX直连手机等新通信服务,成为全球低轨巨型星座组网的重要组成部分。目前星链系统已开展商用,持续拓展通信覆盖能力与应用场景。

Basic Information
目录编号:
57955
目录名称:
STARLINK-30702
国际标识:
2023-148W
轨道中心:
EARTH
卫星名称:
星链-30702
卫星全名:
星链-30702 (STARLINK-30702 )
卫星状态:
在轨 (已飞行1075 天)
发射日期:
2023-09-25 UTC
国别 :
美国 (US)
星等 :
--
Orbit Information
数据来源 国际轨道数据 AOE轨道数据
星历时间 2026-09-03T19:31:32+0800
22小时前
查看轨道信息
2026-08-30T03:00:00+0800
5天前
查看轨道信息
半长轴 6840.862km 6840.871km
偏心率 0.0001183 0.0001851
轨道倾角 53.160° 53.162°
近地点辐角 84.926° 54.031°
升交点赤经 265.497° 287.421°
平近点角 275.188° 312.902°
近地点 461.915km 461.467km
远地点 463.535km 464.001km
周期 93.848分钟 93.848分钟
每日圈数 15.343927 15.343897
Detailed Information
固有亮度:
5
最大亮度:
0.3
卫星平台:
Starlink v2.0 mini
覆盖范围:
全球
运营商:
太空探索技术公司
运营商所在国:
美国
制造商(研发单位):
太空探索技术公司
制造商所在国:
美国
使用方式:
暂无
Satellite Introduction
星链(Starlink)计划是由太空探索技术公司(SpaceX)提出的一个巨型低轨卫星互联网星座项目,计划在2019年至2024年间在太空搭建由约1.2万颗卫星组成的“星链”网络,其中1584颗将部署在地球上空550千米处的近地轨道,并从2020年开始工作。该卫星仍在工作。
2D Orbit Map
3D Orbit Map
Orbit Altitude Analysis Chart
Orbit Inclination Analysis Chart
Orbit Comprehensive Analysis Chart
View Comprehensive Chart